This is the latest recevied weather packets stored in our database for station/object SP1BMW-13. If no packets are shown the sender has not sent any weather packets the latest 10 day(s).
| Time | Temp. | Humidity | Pressure | Rain* | Wind** | Luminosity | Snow |
|---|---|---|---|---|---|---|---|
| 1788012753 | 25.56° C | 41% | 1009.4 hPa | 0 mm | 0.45 m/s, 240° | 228 W/m² | - |
| 1788012693 | 25.56° C | 41% | 1009.2 hPa | 0 mm | 0.89 m/s, 20° | 186 W/m² | - |
| 1788012633 | 25.56° C | 41% | 1009.4 hPa | 0 mm | 0.89 m/s, 240° | 232 W/m² | - |
| 1788012574 | 25.56° C | 40% | 1009.2 hPa | 0 mm | 1.79 m/s, 286° | 415 W/m² | - |
| 1788012514 | 25.56° C | 41% | 1009.3 hPa | 0 mm | 0.45 m/s, 110° | 337 W/m² | - |
| 1788012453 | 26.11° C | 40% | 1009.2 hPa | 0 mm | 0.45 m/s, 149° | 181 W/m² | - |
| 1788012393 | 26.11° C | 40% | 1009.2 hPa | 0 mm | 1.34 m/s, 275° | 376 W/m² | - |
| 1788012333 | 26.11° C | 40% | 1009.3 hPa | 0 mm | 1.79 m/s, 201° | 253 W/m² | - |
| 1788012273 | 26.11° C | 40% | 1009.1 hPa | 0 mm | 0.89 m/s, 340° | 363 W/m² | - |
| 1788012213 | 26.11° C | 39% | 1009.3 hPa | 0 mm | 0.45 m/s, 344° | 254 W/m² | - |
| 1788012152 | 26.11° C | 41% | 1009.4 hPa | 0 mm | 0.45 m/s, 353° | 192 W/m² | - |
| 1788012092 | 26.11° C | 40% | 1009.4 hPa | 0 mm | 0.45 m/s, 299° | 258 W/m² | - |
| 1788012032 | 25.56° C | 40% | 1009.2 hPa | 0 mm | 2.24 m/s, 169° | 401 W/m² | - |
| 1788011973 | 25.56° C | 40% | 1009.4 hPa | 0 mm | 1.34 m/s, 139° | 562 W/m² | - |
| 1788011913 | 25.56° C | 41% | 1009.4 hPa | 0 mm | 1.34 m/s, 250° | 567 W/m² | - |
| 1788011853 | 25.56° C | 41% | 1009.2 hPa | 0 mm | 0.45 m/s, 295° | 575 W/m² | - |
| 1788011792 | 25° C | 41% | 1009.1 hPa | 0 mm | 0.89 m/s, 146° | 553 W/m² | - |
| 1788011733 | 25° C | 42% | 1009.2 hPa | 0 mm | 0.89 m/s, 78° | 554 W/m² | - |
| 1788011673 | 25° C | 42% | 1009.2 hPa | 0 mm | 0.45 m/s, 273° | 547 W/m² | - |
| 1788011612 | 25° C | 42% | 1009.3 hPa | 0 mm | 2.68 m/s, 250° | 569 W/m² | - |
| 1788011553 | 25.56° C | 43% | 1009.2 hPa | 0 mm | 0.89 m/s, 99° | 187 W/m² | - |
| 1788011493 | 25.56° C | 42% | 1009.2 hPa | 0 mm | 0.89 m/s, 297° | 184 W/m² | - |
| 1788011432 | 25.56° C | 41% | 1009.2 hPa | 0 mm | 2.68 m/s, 108° | 184 W/m² | - |
| 1788011372 | 25.56° C | 42% | 1009.1 hPa | 0 mm | 0.45 m/s, 8° | 188 W/m² | - |
| 1788011312 | 25.56° C | 42% | 1009 hPa | 0 mm | 1.34 m/s, 86° | 284 W/m² | - |
* Rain latest hour (hover to see other rain measurements)
** Current wind speed in m/s (hover to see current wind gust speed)